User: anonymous   Login
Location: Mentone
(34.5413°N, 85.5351°W)
Time: 13:48:27
(UTC-05:00)
Language:

A-11 Canister half - Orbit

View from above orbital plane
View from above orbital plane
View from above satellite
View from above satellite

Ground track
Ground track

The orbit data is extracted from the following two-line orbital elements,

1    53U 60009E   15246.86176307 -.00000084 +00000-0 +00000-0 0  9992
2    53 047.2753 251.0211 0100035 313.6100 045.6423 12.17177043455587
Epoch (UTC): 03 September 2015 20:40:56
Eccentricity: 0.0100035
inclination: 47.2753°
perigee height: 1525 km
apogee height: 1685 km
right ascension of ascending node: 251.0211°
argument of perigee: 313.6100°
revolutions per day: 12.17177043
mean anomaly at epoch: 45.6423°
orbit number at epoch: 45558

The dashed part of the orbit path shows where the satellite is in the earth's shadow,  

DLR